Ardmore, OK

8:56 AM CDT on April 29, 2017 (GMT -0500)
Ardmore Municipal

Weather History for KADM - August, 2013

Change the Weather History Date:

Thursday, August 1, 2013

  Actual Average Record
Temperature  
Mean Temperature 86 °F -  
Max Temperature 99 °F 93 °F 109 °F (2011)
Min Temperature 75 °F 72 °F 33 °F (1996)
Cooling Degree Days 22    
Growing Degree Days 36 (Base 50)    
Moisture  
Dew Point 69 °F    
Average Humidity 67    
Maximum Humidity 83    
Minimum Humidity 34    
Precipitation  
Precipitation 0.00 in - - ()
Sea Level Pressure  
Sea Level Pressure 30.01 in    
Wind  
Wind Speed 4 mph (NE)    
Max Wind Speed 8 mph    
Max Gust Speed -    
Visibility 10 miles    
Events      
Averages and records for this station are not official NWS values.
T = Trace of Precipitation, MM = Missing Value Source: NWS Daily Summary

Daily Weather History Graph

Daily Weather History Graph

Search for Another Location

Airport or City:

Trip Planner

Search our weather history database for the weather conditions in past years. The results will help you decide how hot, cold, wet, or windy it might be!

Date:

Astronomy

Aug. 01, 2013 Rise Set
Actual Time 6:39 AM CDT 8:29 PM CDT
Civil Twilight 6:11 AM CDT 8:56 PM CDT
Nautical Twilight 5:38 AM CDT 9:29 PM CDT
Astronomical Twilight 5:02 AM CDT 10:04 PM CDT
Moon 2:17 AM CDT (8/1) 4:37 PM CDT (8/1)
Length of Visible Light 14h 44m
Length of Day
13h 50m
Waning Crescent, 23% of the Moon is Illuminated
Aug 1
Waning Crescent
Aug 6
New
Aug 14
First Quarter
Aug 20
Full
Aug 28
Last Quarter

Hourly Weather History & Observations

Time (CDT) Temp. Heat Index Dew Point Humidity Pressure Visibility Wind Dir Wind Speed Gust Speed Precip Events Conditions
12:15 AM 80.8 °F 84.6 °F 70.9 °F 72% 30.02 in 10.0 mi East 3.5 mph - N/A   Clear
12:35 AM 80.6 °F 84.2 °F 70.7 °F 72% 30.03 in 10.0 mi ENE 4.6 mph - N/A   Clear
12:55 AM 80.8 °F 84.2 °F 70.3 °F 70% 30.03 in 10.0 mi ENE 5.8 mph - N/A   Clear
1:15 AM 80.6 °F 83.9 °F 70.2 °F 70% 30.03 in 10.0 mi East 4.6 mph - N/A   Clear
1:35 AM 80.2 °F 83.5 °F 70.0 °F 71% 30.03 in 10.0 mi NE 3.5 mph - N/A   Clear
1:55 AM 80.1 °F 83.3 °F 70.2 °F 72% 30.02 in 10.0 mi ENE 4.6 mph - N/A   Clear
2:15 AM 79.9 °F - 70.0 °F 72% 30.02 in 10.0 mi ENE 4.6 mph - N/A   Clear
2:35 AM 79.9 °F - 69.8 °F 71% 30.02 in 10.0 mi NE 5.8 mph - N/A   Clear
2:55 AM 79.7 °F - 69.3 °F 70% 30.02 in 10.0 mi NE 4.6 mph - N/A   Clear
3:15 AM 79.2 °F - 69.3 °F 72% 30.02 in 10.0 mi NE 4.6 mph - N/A   Clear
3:35 AM 78.4 °F - 69.4 °F 74% 30.02 in 10.0 mi Calm Calm - N/A   Clear
3:55 AM 77.9 °F - 69.8 °F 76% 30.01 in 10.0 mi North 5.8 mph - N/A   Clear
4:15 AM 77.4 °F - 68.9 °F 75% 30.01 in 10.0 mi NNE 5.8 mph - N/A   Clear
4:35 AM 76.5 °F - 68.2 °F 75% 30.01 in 10.0 mi NNE 4.6 mph - N/A   Clear
4:55 AM 76.3 °F - 69.3 °F 79% 30.02 in 10.0 mi NNE 6.9 mph - N/A   Clear
5:15 AM 76.5 °F - 69.4 °F 79% 30.02 in 10.0 mi North 5.8 mph - N/A   Clear
5:35 AM 76.3 °F - 69.8 °F 80% 30.02 in 10.0 mi North 6.9 mph - N/A   Clear
5:55 AM 76.1 °F - 69.4 °F 80% 30.03 in 10.0 mi North 4.6 mph - N/A   Clear
6:15 AM 75.9 °F - 69.3 °F 80% 30.03 in 10.0 mi NNE 5.8 mph - N/A   Clear
6:35 AM 75.6 °F - 69.4 °F 81% 30.03 in 10.0 mi NNE 5.8 mph - N/A   Clear
6:55 AM 75.2 °F - 69.8 °F 83% 30.04 in 10.0 mi NNE 6.9 mph - N/A   Clear
9:55 AM 87.8 °F 92.6 °F 69.8 °F 55% 30.05 in 10.0 mi ENE 5.8 mph - N/A   Clear
12:50 PM 96.8 °F 101.8 °F 68.0 °F 39% 30.03 in 10.0 mi Calm Calm - N/A   Scattered Clouds
2:55 PM 98.6 °F 102.8 °F 66.2 °F 35% 30.00 in 10.0 mi East 8.1 mph - N/A   Clear
3:55 PM 98.6 °F 102.8 °F 66.2 °F 35% 29.99 in 10.0 mi SE 5.8 mph - N/A   Clear
5:55 PM 98.6 °F 102.8 °F 66.2 °F 35% 29.95 in 10.0 mi East 4.6 mph - N/A   Clear
6:55 PM 96.8 °F 99.0 °F 64.4 °F 34% 29.94 in 10.0 mi ESE 4.6 mph - N/A   Clear
8:55 PM 82.4 °F 84.6 °F 66.2 °F 58% 29.95 in 10.0 mi East 3.5 mph - N/A   Clear
9:55 PM 78.8 °F - 66.2 °F 65% 29.95 in 10.0 mi Calm Calm - N/A   Clear
11:35 PM 79.3 °F - 68.5 °F 69% 29.94 in 10.0 mi Calm Calm - N/A   Clear
11:55 PM 79.2 °F - 69.8 °F 73% 29.94 in 10.0 mi East 3.5 mph - N/A   Clear